Location: Mannheim
(49.4880°N, 8.4650°E)
Time: 17:54:22
(UTC+02:00)

ISS - Visible Passes

Search period start: 25 May 2020 00:00
Search period end: 04 June 2020 00:00
Orbit: 417 x 420 km, 51.6° (Epoch: 26 May)

Date Brightness Start Highest point End Pass type
(mag) Time Alt. Az. Time Alt. Az. Time Alt. Az.
25 May -2.4 00:45:32 10° W 00:47:37 28° WSW 00:47:37 28° WSW visible
25 May -3.3 22:20:48 10° WNW 22:24:10 62° N 22:27:31 10° E visible
25 May -3.6 23:57:40 10° WNW 00:00:57 53° SSW 00:01:21 49° S visible
26 May -3.8 23:09:50 10° WNW 23:13:12 74° SSW 23:15:05 24° ESE visible
27 May -1.4 00:47:14 10° W 00:48:01 13° WSW 00:48:01 13° WSW visible
27 May -3.7 22:22:01 10° WNW 22:25:24 86° NNE 22:28:47 10° ESE visible
27 May -2.4 23:59:05 10° W 00:01:47 25° SW 00:01:47 25° SW visible
28 May -3.0 23:11:05 10° W 23:14:15 37° SSW 23:15:35 25° SSE visible
29 May -3.4 22:23:11 10° WNW 22:26:30 53° SSW 22:29:24 13° SE visible
30 May -1.3 00:01:23 10° WSW 00:02:20 12° SW 00:02:20 12° SW visible
30 May -1.8 23:12:42 10° W 23:15:04 18° SW 23:16:11 15° SSW visible
31 May -2.3 22:24:30 10° W 22:27:23 26° SW 22:30:04 11° SSE visible
02 Jun -1.2 22:26:41 10° WSW 22:28:03 12° SW 22:29:25 10° SSW visible
